Location: North Evanston
(42.0634°N, 87.6976°W)
Time: 21:18:09
(UTC+00:00)

Transit 2A - Pass Details

Date: 14 May 2026
Orbit: 595 x 948 km, 66.7° (Epoch: 9 June)

Event Time Altitude Azimuth Distance (km) Brightness Sun altitude
Rises 22:36:32 0° 236° (SW) 3,587 10.3 25.4°
Reaches altitude 10° 22:39:22 10° 245° (WSW) 2,622 9.9 24.9°
Maximum altitude 22:44:55 35° 310° (NW) 1,400 8.5 23.9°
Drops below altitude 10° 22:50:09 10° 15° (NNE) 2,462 8.6 22.9°
Sets 22:52:44 0° 25° (NNE) 3,342 9.1 22.4°
